Terminal Aerodrome Forecast
Issued by NWS Greer, SC

Home | Current Version | Previous Version | Text Only | Print | Product List | Glossary On
Versions: 1 2 3 4 5 6 7 8 9 10 11 12 13 14 15 16 17 18 19 20 21 22 23 24 25 26 27 28 29 30 31 32 33 34 35 36 37 38 39 40
000
FTUS42 KGSP 260243 AAA
TAFAVL
TAF AMD
KAVL 260243Z 2603/2624 33004KT P6SM FEW240
     FM260500 VRB03KT P6SM FEW240
     FM261000 VRB02KT 4SM BR FEW240
     FM261300 33004KT P6SM FEW240
     FM261800 35004KT P6SM SCT240=

USA.gov is the U.S. government's official web portal to all federal, state and local government web resources and services.